Regional Weather Roundup
Issued by NWS Little Rock, AR

Home | Current Version | Previous Version | Text Only | Print | Product List | Glossary On
Versions: 1 2 3 4 5 6 7 8 9 10 11 12 13 14 15 16 17 18 19 20 21 22 23 24 25 26 27 28 29 30 31 32 33 34 35 36 37 38 39 40 41 42 43 44 45 46 47 48 49 50
000
ASUS44 KLZK 262005
RWRLZK

WEATHER ROUNDUP FOR ARKANSAS
NATIONAL WEATHER SERVICE LITTLE ROCK AR
300 PM CDT SUN JUN 26 2016

NOTE: "FAIR" INDICATES FEW OR NO CLOUDS BELOW 12,000 FEET WITH NO
SIGNIFICANT WEATHER AND/OR OBSTRUCTIONS TO VISIBILITY.

ARZ001-003-010-029-262100-
NORTHWEST ARKANSAS

CITY           SKY/WX    TMP DP  RH WIND       PRES   REMARKS
FAYETTEVILLE   SUNNY     89  73  59 S9        30.10F HX  97
FORT SMITH     MOSUNNY   96  70  42 W12       30.04F HX 102
HARRISON       MOSUNNY   92  72  51 W7        30.10F HX  99
BENTONVILLE    PTSUNNY   91  68  46 W12G17    30.10F HX  95
ROGERS         CLOUDY    90  71  53 SW9       30.10F HX  96
SILOAM SPGS    SUNNY     93  66  40 SW12G20   30.10F HX  96
HIGHFILL       CLOUDY    93  72  50 SW9       30.09F HX 101
SPRINGDALE     MOSUNNY   91  70  49 SW10G17   30.11F HX  97
$$

ARZ004-005-016-262100-
NORTH CENTRAL ARKANSAS

CITY           SKY/WX    TMP DP  RH WIND       PRES   REMARKS
BATESVILLE     CLOUDY    75  72  88 CALM      30.07F
FLIPPIN        MOSUNNY   93  70  46 W7        30.04F HX  99
MTN HOME       LGT RAIN  90  72  55 SW6       30.06F HX  97
$$

ARZ040-041-262100-
WEST CENTRAL ARKANSAS

CITY           SKY/WX    TMP DP  RH WIND       PRES   REMARKS
MENA           MOSUNNY   93  73  52 SW3       30.10F HX 102
MOUNT IDA      MOSUNNY   94  73  50 VRB3      30.05F HX 103
$$

ARZ009-017-025-026-028-262100-
NORTHEAST ARKANSAS

CITY           SKY/WX    TMP DP  RH WIND       PRES   REMARKS
CORNING          N/A     91  77  62 S7        30.05F HX 105
JONESBORO      CLOUDY    87  73  62 S5        30.07F HX  94
NEWPORT        CLOUDY    91  75  59 SE6       30.08F HX 101
WALNUT RIDGE   CLOUDY    90  73  58 S12       30.05F HX  98
BLYTHEVILLE    CLOUDY    85  74  69 SW8       30.07F HX  92
$$

ARZ022-023-033-042-044-262100-
CENTRAL ARKANSAS

CITY           SKY/WX    TMP DP  RH WIND       PRES   REMARKS
LITTLE ROCK    MOSUNNY   95  72  47 SW8       30.05F HX 103
N LITTLE ROCK    N/A     91  74  57 SW6       30.02F HX 100
JACKSONVILLE   SUNNY     97  72  44 S7        30.05F HX 106
SEARCY         PTSUNNY   95  77  55 E7        30.07S HX 109
HOT SPRINGS    PTSUNNY   95  72  47 SW10      30.06F HX 103
RUSSELLVILLE   CLOUDY    88  74  63 S8        30.05S HX  96
$$

ARZ036-262100-
EAST ARKANSAS

CITY           SKY/WX    TMP DP  RH WIND       PRES   REMARKS
WEST MEMPHIS   PTSUNNY   88  72  58 N5        30.07F HX  94
$$

ARZ050-053-066-070-073-262100-
SOUTHWEST ARKANSAS

CITY           SKY/WX    TMP DP  RH WIND       PRES   REMARKS
ARKADELPHIA    FAIR      98  73  44 SW8       30.06F HX 108
CAMDEN         MOSUNNY  100  72  39 NW3       30.06S HX 109
TEXARKANA      CLOUDY    93  73  52 SW13      30.08F HX 102
EL DORADO      MOSUNNY   95  74  50 VRB3      30.08F HX 105
DE QUEEN       PTSUNNY   91  77  63 S6        30.05F HX 104
$$

ARZ056-057-069-262100-
SOUTHEAST ARKANSAS

CITY           SKY/WX    TMP DP  RH WIND       PRES   REMARKS
PINE BLUFF     MOSUNNY   94  73  50 W8        30.07F HX 103
STUTTGART      MOSUNNY   97  72  44 S5        30.07F HX 105
MONTICELLO     MOSUNNY   95  74  50 S6        30.07F HX 105

$$





USA.gov is the U.S. government's official web portal to all federal, state and local government web resources and services.